Murray, NE

5:36 AM CDT on October 01, 2016 (GMT -0500)
Plattsmouth Municipal

Weather History for KPMV - March, 2014

Change the Weather History Date:

Tuesday, March 4, 2014

  Actual Average (KOFF) Record (KOFF)
Temperature  
Mean Temperature 24 °F -  
Max Temperature 36 °F 37 °F 62 °F (2005)
Min Temperature 11 °F 21 °F 0 °F (2002)
Degree Days  
Heating Degree Days 42    
Moisture  
Dew Point 11 °F    
Average Humidity 58    
Maximum Humidity 73    
Minimum Humidity 40    
Precipitation  
Precipitation 0.00 in - - ()
Sea Level Pressure  
Sea Level Pressure 30.04 in    
Wind  
Wind Speed 8 mph (SE)    
Max Wind Speed 13 mph    
Max Gust Speed 17 mph    
Visibility 10 miles    
Events      
Averages and records for this station are not official NWS values.
T = Trace of Precipitation, MM = Missing Value Source: NWS Daily Summary

Daily Weather History Graph

Daily Weather History Graph

Search for Another Location

Airport or City:

Trip Planner

Search our weather history database for the weather conditions in past years. The results will help you decide how hot, cold, wet, or windy it might be!

Date:

Astronomy

Mar. 04, 2014 Rise Set
Actual Time 6:53 AM CST 6:18 PM CST
Civil Twilight 6:25 AM CST 6:45 PM CST
Nautical Twilight 5:53 AM CST 7:17 PM CST
Astronomical Twilight 5:21 AM CST 7:49 PM CST
Moon 8:38 AM CST (3/4) 10:28 PM CST (3/4)
Length of Visible Light 12h 20m
Length of Day
11h 25m
Waxing Crescent, 15% of the Moon is Illuminated
Mar 4
Waxing Crescent
Mar 8
First Quarter
Mar 16
Full
Mar 23
Last Quarter
Mar 30
New

Hourly Weather History & Observations

Time (CST) Temp. Windchill Dew Point Humidity Pressure Visibility Wind Dir Wind Speed Gust Speed Precip Events Conditions
12:15 AM 15.3 °F 3.5 °F 3.2 °F 59% 30.14 in 10.0 mi SSE 9.2 mph - N/A   Clear
12:35 AM 14.9 °F 3.1 °F 3.2 °F 60% 30.14 in 10.0 mi SSE 9.2 mph - N/A   Clear
12:55 AM 14.5 °F 2.7 °F 3.2 °F 61% 30.14 in 10.0 mi SSE 9.2 mph - N/A   Clear
1:15 AM 14.0 °F 3.9 °F 3.2 °F 62% 30.14 in 10.0 mi SSE 6.9 mph - N/A   Clear
1:35 AM 13.8 °F 3.7 °F 3.2 °F 63% 30.14 in 10.0 mi SSE 6.9 mph - N/A   Clear
1:55 AM 13.5 °F 2.2 °F 3.2 °F 64% 30.13 in 10.0 mi SSE 8.1 mph - N/A   Clear
2:15 AM 13.5 °F 2.2 °F 3.2 °F 64% 30.12 in 10.0 mi SSE 8.1 mph - N/A   Clear
2:35 AM 13.5 °F 2.2 °F 3.2 °F 64% 30.12 in 10.0 mi SSE 8.1 mph - N/A   Clear
2:55 AM 13.5 °F 1.3 °F 3.2 °F 64% 30.11 in 10.0 mi South 9.2 mph - N/A   Clear
3:15 AM 13.1 °F 1.8 °F 3.2 °F 65% 30.10 in 10.0 mi SSE 8.1 mph - N/A   Clear
3:35 AM 13.1 °F 1.8 °F 3.2 °F 65% 30.10 in 10.0 mi SSE 8.1 mph - N/A   Clear
3:55 AM 12.9 °F 1.6 °F 3.2 °F 65% 30.09 in 10.0 mi SSE 8.1 mph - N/A   Clear
4:15 AM 12.9 °F 2.6 °F 3.2 °F 65% 30.09 in 10.0 mi SSE 6.9 mph - N/A   Clear
4:35 AM 12.6 °F 2.2 °F 3.2 °F 66% 30.09 in 10.0 mi SSE 6.9 mph - N/A   Clear
4:55 AM 12.2 °F 0.7 °F 3.2 °F 67% 30.08 in 10.0 mi SSE 8.1 mph - N/A   Clear
5:15 AM 11.7 °F 1.1 °F 3.2 °F 69% 30.08 in 10.0 mi SE 6.9 mph - N/A   Clear
5:35 AM 11.3 °F 1.9 °F 3.7 °F 72% 30.08 in 10.0 mi SE 5.8 mph - N/A   Clear
5:55 AM 11.3 °F 1.9 °F 3.9 °F 72% 30.08 in 10.0 mi SSE 5.8 mph - N/A   Clear
6:15 AM 11.3 °F 0.7 °F 4.1 °F 73% 30.07 in 10.0 mi SE 6.9 mph - N/A   Clear
6:35 AM 11.3 °F 1.9 °F 4.1 °F 73% 30.07 in 10.0 mi SSE 5.8 mph - N/A   Clear
6:55 AM 11.3 °F 1.9 °F 3.9 °F 72% 30.07 in 10.0 mi SE 5.8 mph - N/A   Clear
7:15 AM 11.8 °F 3.9 °F 4.5 °F 72% 30.08 in 10.0 mi SE 4.6 mph - N/A   Clear
7:35 AM 12.2 °F 1.7 °F 4.6 °F 72% 30.07 in 10.0 mi SE 6.9 mph - N/A   Clear
7:55 AM 12.7 °F 3.6 °F 5.0 °F 71% 30.07 in 10.0 mi SSE 5.8 mph - N/A   Clear
8:15 AM 14.7 °F 5.9 °F 5.7 °F 68% 30.07 in 10.0 mi SSE 5.8 mph - N/A   Clear
8:35 AM 16.9 °F 7.4 °F 5.7 °F 62% 30.06 in 10.0 mi SSE 6.9 mph - N/A   Clear
8:55 AM 19.0 °F 10.0 °F 5.5 °F 56% 30.06 in 10.0 mi SSE 6.9 mph - N/A   Clear
9:15 AM 19.6 °F 13.0 °F 4.3 °F 52% 30.06 in 10.0 mi South 4.6 mph - N/A   Clear
9:35 AM 21.0 °F 12.4 °F 5.0 °F 50% 30.06 in 10.0 mi South 6.9 mph - N/A   Clear
9:55 AM 21.7 °F 14.3 °F 5.0 °F 49% 30.05 in 10.0 mi South 5.8 mph - N/A   Clear
10:15 AM 23.0 °F 17.0 °F 6.1 °F 48% 30.06 in 10.0 mi South 4.6 mph - N/A   Clear
10:35 AM 24.4 °F 17.5 °F 6.6 °F 47% 30.06 in 10.0 mi SW 5.8 mph - N/A   Clear
10:55 AM 25.7 °F - 6.8 °F 45% 30.05 in 10.0 mi Calm Calm - N/A   Clear
11:15 AM 27.5 °F 21.1 °F 7.9 °F 44% 30.04 in 10.0 mi SE 5.8 mph - N/A   Clear
11:35 AM 28.9 °F 22.8 °F 8.4 °F 42% 30.04 in 10.0 mi SE 5.8 mph - N/A   Clear
11:55 AM 30.7 °F 22.0 °F 8.8 °F 40% 30.04 in 10.0 mi ESE 10.4 mph - N/A   Clear
12:15 PM 30.6 °F 21.8 °F 9.1 °F 41% 30.03 in 10.0 mi ESE 10.4 mph - N/A   Clear
12:35 PM 31.3 °F 22.1 °F 10.0 °F 41% 30.03 in 10.0 mi ESE 11.5 mph - N/A   Clear
12:55 PM 32.7 °F 23.9 °F 11.1 °F 41% 30.01 in 10.0 mi ESE 11.5 mph - N/A   Clear
1:15 PM 33.8 °F 25.3 °F 11.8 °F 40% 30.00 in 10.0 mi SSE 11.5 mph 16.1 mph N/A   Clear
1:35 PM 32.0 °F 23.0 °F 12.6 °F 45% 30.00 in 10.0 mi South 11.5 mph - N/A   Mostly Cloudy
1:55 PM 32.0 °F 24.2 °F 13.1 °F 46% 30.00 in 10.0 mi SSE 9.2 mph - N/A   Mostly Cloudy
2:15 PM 32.4 °F 24.6 °F 13.1 °F 45% 30.00 in 10.0 mi SSE 9.2 mph 16.1 mph N/A   Scattered Clouds
2:35 PM 33.3 °F 25.7 °F 14.0 °F 45% 29.98 in 10.0 mi SE 9.2 mph - N/A   Mostly Cloudy
2:55 PM 33.4 °F 24.8 °F 14.9 °F 47% 29.97 in 10.0 mi SE 11.5 mph - N/A   Scattered Clouds
3:15 PM 34.0 °F 25.0 °F 15.8 °F 47% 29.97 in 10.0 mi SSE 12.7 mph - N/A   Mostly Cloudy
3:35 PM 35.1 °F 26.4 °F 16.5 °F 47% 29.97 in 10.0 mi SE 12.7 mph - N/A   Mostly Cloudy
3:55 PM 34.7 °F 26.4 °F 16.9 °F 48% 29.96 in 10.0 mi SE 11.5 mph 17.3 mph N/A   Mostly Cloudy
4:15 PM 34.0 °F 26.0 °F 17.8 °F 52% 29.95 in 10.0 mi SE 10.4 mph 16.1 mph N/A   Mostly Cloudy
4:35 PM 36.1 °F 28.2 °F 18.7 °F 49% 29.95 in 10.0 mi SSE 11.5 mph - N/A   Scattered Clouds
4:55 PM 34.7 °F 26.4 °F 18.5 °F 52% 29.96 in 10.0 mi SSE 11.5 mph - N/A   Clear
5:15 PM 34.2 °F 26.8 °F 19.0 °F 54% 29.95 in 10.0 mi SE 9.2 mph - N/A   Mostly Cloudy
5:35 PM 34.0 °F 27.2 °F 19.4 °F 55% 29.96 in 10.0 mi SE 8.1 mph - N/A   Mostly Cloudy
5:55 PM 32.9 °F 26.7 °F 19.2 °F 57% 29.96 in 10.0 mi East 6.9 mph - N/A   Mostly Cloudy
6:15 PM 32.5 °F 27.1 °F 19.4 °F 58% 29.97 in 10.0 mi ESE 5.8 mph - N/A   Mostly Cloudy
6:35 PM 32.0 °F 24.8 °F 19.9 °F 61% 29.97 in 10.0 mi East 8.1 mph - N/A   Scattered Clouds
6:55 PM 32.0 °F 24.8 °F 20.1 °F 62% 29.97 in 10.0 mi East 8.1 mph - N/A   Clear
7:15 PM 32.0 °F 26.4 °F 20.3 °F 62% 29.99 in 10.0 mi East 5.8 mph - N/A   Scattered Clouds
7:35 PM 32.0 °F 26.4 °F 20.3 °F 62% 30.00 in 10.0 mi ENE 5.8 mph - N/A   Overcast
7:55 PM 30.0 °F 23.2 °F 19.4 °F 65% 30.00 in 10.0 mi ENE 6.9 mph - N/A   Scattered Clouds
8:15 PM 29.3 °F 22.3 °F 19.4 °F 67% 30.00 in 10.0 mi ENE 6.9 mph - N/A   Clear
8:35 PM 28.9 °F 21.9 °F 18.7 °F 66% 30.01 in 10.0 mi ENE 6.9 mph - N/A   Clear
8:55 PM 28.4 °F 21.2 °F 18.5 °F 66% 30.01 in 10.0 mi ENE 6.9 mph - N/A   Clear
9:15 PM 28.4 °F 22.2 °F 18.5 °F 66% 30.02 in 10.0 mi ENE 5.8 mph - N/A   Clear
9:35 PM 29.1 °F 22.1 °F 18.7 °F 65% 30.03 in 10.0 mi ENE 6.9 mph - N/A   Mostly Cloudy
9:55 PM 29.3 °F 22.3 °F 18.9 °F 65% 30.03 in 10.0 mi ENE 6.9 mph - N/A   Scattered Clouds
10:15 PM 30.2 °F 23.4 °F 18.9 °F 63% 30.04 in 10.0 mi ENE 6.9 mph - N/A   Mostly Cloudy
10:35 PM 30.2 °F 23.4 °F 19.0 °F 63% 30.04 in 10.0 mi ENE 6.9 mph - N/A   Overcast
10:55 PM 30.2 °F 24.3 °F 19.2 °F 64% 30.05 in 10.0 mi ENE 5.8 mph - N/A   Mostly Cloudy
11:15 PM 30.0 °F 23.2 °F 19.2 °F 64% 30.05 in 10.0 mi NE 6.9 mph - N/A   Mostly Cloudy
11:35 PM 29.1 °F 23.0 °F 18.5 °F 65% 30.06 in 10.0 mi NE 5.8 mph - N/A   Scattered Clouds
11:55 PM 28.6 °F 21.5 °F 18.5 °F 66% 30.06 in 10.0 mi NE 6.9 mph - N/A   Scattered Clouds